Location: Mentone
(34.5413°N, 85.5351°W)
Time: 06:33:02
(UTC-05:00)

Transit 2A Rocket - Visible Passes

Search period start: 02 September 2014 00:00
Search period end: 12 September 2014 00:00
Orbit: 594 x 914 km, 66.7° (Epoch: 01 September)

Date Brightness Start Highest point End Pass type
(mag) Time Alt. Az. Time Alt. Az. Time Alt. Az.
02 Sep 6.6 05:29:08 10° SSE 05:32:50 27° ESE 05:36:29 10° NE visible
03 Sep 7.3 04:49:09 10° SE 04:51:23 14° ESE 04:53:35 10° ENE visible
04 Sep 4.5 05:47:30 10° SSW 05:51:51 83° WNW 05:56:10 10° NNE visible
05 Sep 5.4 05:06:05 10° S 05:10:15 47° ESE 05:14:23 10° NE visible
06 Sep 6.6 04:25:27 11° SSE 04:28:44 23° ESE 04:32:10 10° NE visible
07 Sep 7.3 03:45:48 10° SE 03:47:18 12° ESE 03:48:47 10° E visible
07 Sep 4.8 05:25:47 13° SW 05:29:23 47° WNW 05:33:34 10° NNE visible
08 Sep 4.4 04:45:59 36° SSW 04:47:43 84° ESE 04:52:01 10° NNE visible
09 Sep 5.5 04:06:04 40° ESE 04:06:08 40° ESE 04:10:09 10° NE visible
09 Sep 6.3 05:46:12 10° W 05:48:52 16° NW 05:51:34 10° NNW visible
10 Sep 7.1 03:26:03 17° E 03:26:03 17° E 03:27:47 10° ENE visible
10 Sep 5.5 05:06:03 26° W 05:06:59 29° WNW 05:10:45 10° N visible
11 Sep 5.0 04:25:57 49° NNW 04:25:57 49° NNW 04:29:28 10° NNE visible
